Location: Asni�res
(49.1337°N, 2.3555°E)
Time: 20:43:00
(UTC+00:00)

Cosmos 1535 Rocket - Pass Details

Date: 28 May 2022
Orbit: 949 x 1003 km, 83.0° (Epoch: 24 June)

Event Time Altitude Azimuth Distance (km) Brightness Sun altitude
Rises 02:26:43 0° 360° (N) 3,656 8.4 -11.1°
Reaches altitude 10° 02:30:14 10° 20° (NNE) 2,715 8.1 -10.7°
Maximum altitude 02:34:11 17° 60° (ENE) 2,238 7.5 -10.3°
Drops below altitude 10° 02:38:09 10° 100° (E) 2,729 7.3 -9.9°
Sets 02:41:40 0° 119° (ESE) 3,683 7.7 -9.5°
